Powrót do katalogu

FREGAT DEB

AktywnyUNKNOWN
NORAD 45837·DEBRIS·🇷🇺 Russia

Wystrzelony Jul 18, 2011 z Baikonur Cosmodrome

Loading…

Następne Przeloty (najbliższe 24 godziny)

TLE

ŚwieżeSource: Space-Track

Epoka: Sep 13, 2026, 14:12 UTC

1 45837U 11037BX  26256.59200812  .00024586  00000-0  55684-1 0  9991
2 45837  51.5598  26.6454 1605951 217.7791 129.8915 11.05572513243789

Śledź FREGAT DEB w czasie rzeczywistym z AllMySat

Download on the App Store